Theta_e
331 338 341 341 339 338 337 337 336 336 337 336 333 326 329 330 330 331 332 330 333 334 333 332 332 332 332 332 332 331 331 331 331
341 342 341 340 337 336 334 335 336 336 335 335 333 328 330 329 329 329 332 332 332 334 333 332 332 332 332 332 331 331 331 331 330
339 339 340 339 337 334 333 333 334 334 333 332 334 328 327 328 328 331 332 333 328 333 329 329 331 330 330 330 330 330 329 329 327
337 338 339 339 337 334 334 332 333 332 331 331 335 331 326 326 327 332 330 332 328 329 325 326 327 326 326 325 325 324 323 323 323
339 336 336 336 337 334 334 333 334 328 330 332 334 332 328 324 328 329 330 332 329 328 325 326 326 325 324 324 323 322 322 321 320
339 340 337 335 335 334 333 332 333 329 329 335 335 333 327 323 326 328 327 329 330 329 326 325 325 325 324 324 323 322 321 321 321
337 339 339 338 335 334 333 332 331 332 329 328 329 328 325 322 325 326 327 329 329 329 329 327 326 326 325 325 325 324 323 322 322
338 340 339 338 337 334 333 332 331 330 332 329 328 330 327 324 329 329 327 328 328 329 332 329 327 327 327 326 326 326 326 326 325
339 340 340 340 337 336 335 333 332 330 329 330 329 331 330 328 326 330 329 329 329 329 332 333 330 328 328 329 329 327 327 327 326
340 340 340 338 339 337 336 336 334 334 332 327 329 330 330 330 329 330 329 329 329 329 327 333 335 334 333 332 332 329 328 328 328
338 338 338 338 338 338 338 337 336 335 334 331 326 326 330 329 329 329 329 329 328 327 326 327 332 335 335 335 334 332 331 329 330
336 337 337 336 336 337 338 338 337 335 333 331 328 327 328 328 328 328 328 328 328 327 326 326 325 327 335 336 336 334 332 330 330
334 335 336 335 334 336 337 337 336 336 335 330 328 328 327 327 328 327 327 326 327 327 326 326 326 325 325 333 335 334 333 333 332
332 332 333 334 335 335 336 337 336 336 336 335 335 331 328 329 328 327 327 326 326 326 326 326 327 327 326 325 331 334 331 331 331
328 330 331 330 331 334 335 334 334 334 333 334 334 334 333 332 330 329 329 327 326 326 325 325 327 328 328 327 326 327 327 327 328
328 328 329 329 330 330 331 333 332 331 331 332 333 333 332 333 333 331 330 330 329 327 326 326 326 327 327 328 322 321 327 327 327
328 328 328 329 329 330 330 332 332 330 328 330 330 327 328 330 329 330 331 330 329 328 327 327 326 327 326 323 319 324 327 327 328
326 326 326 326 327 328 329 330 330 328 327 327 329 328 328 324 328 328 329 330 329 329 329 328 326 325 325 323 321 324 326 327 328
325 326 327 328 328 328 328 327 327 328 328 328 328 329 328 328 328 327 329 329 329 329 328 327 327 326 325 324 323 324 325 326 328
325 325 326 326 326 326 327 327 327 328 328 328 329 329 330 329 328 329 327 327 327 328 327 326 325 326 326 326 326 325 327 327 329
Wind_Speed
7 7 4 11 7 6 6 7 7 7 9 6 5 8 7 7 8 7 3 3 6 6 6 7 7 7 8 8 7 8 8 8 9
7 6 8 10 9 7 5 8 9 8 7 7 4 6 6 5 7 4 2 1 5 5 5 6 6 6 6 6 6 6 6 7 7
9 8 10 11 9 7 5 8 9 9 9 8 6 6 6 6 4 7 4 2 3 5 4 4 4 3 4 4 4 4 4 5 4
11 10 10 12 11 9 7 7 9 9 9 10 9 7 6 7 3 8 5 4 5 5 4 3 3 3 2 2 2 2 2 2 2
13 12 12 12 13 12 10 9 9 9 9 11 11 9 8 9 6 8 7 7 5 6 5 5 5 4 3 2 1 1 0 1 2
15 16 15 14 14 13 13 11 12 11 10 10 11 10 9 11 9 9 10 9 8 8 8 7 7 7 6 4 4 4 3 3 3
16 16 17 17 15 15 14 13 14 13 13 13 13 13 11 13 12 12 13 12 10 10 10 10 9 9 8 7 6 6 6 6 6
17 17 16 18 17 17 17 16 16 17 16 16 15 13 12 14 14 12 15 13 12 11 12 12 12 11 11 10 9 9 9 9 8
19 19 19 20 21 19 19 19 19 19 19 18 19 16 17 10 16 12 18 16 16 14 15 15 14 14 13 13 12 12 12 11 11
16 19 21 20 22 22 22 21 21 19 19 21 21 22 19 19 16 16 16 17 17 16 16 17 17 16 16 16 16 16 15 14 14
16 18 19 19 20 20 22 22 22 22 21 19 21 25 24 21 20 20 20 20 19 18 18 19 20 20 19 18 19 18 19 18 16
15 17 16 18 19 20 22 20 21 19 25 26 22 22 24 26 25 23 24 24 25 23 21 20 22 22 21 21 20 21 21 19 18
16 13 16 13 13 15 18 21 23 26 25 22 24 24 26 28 29 30 28 28 28 28 25 24 23 24 24 22 21 20 21 20 20
18 18 15 13 14 15 16 16 17 18 20 25 27 28 27 25 27 30 30 31 29 29 29 28 26 24 24 25 23 22 22 23 22
20 21 18 14 13 15 17 17 16 17 19 19 24 27 29 32 34 33 29 30 33 33 32 30 29 26 25 22 25 26 28 26 25
20 19 18 17 17 15 16 18 17 17 18 17 21 25 26 30 32 35 31 37 37 34 34 32 33 32 28 26 25 26 33 29 30
22 18 16 13 13 15 15 18 17 18 18 13 7 4 10 22 29 33 36 40 40 34 33 36 36 36 34 33 34 31 34 31 31
15 15 12 15 14 15 16 15 18 22 22 23 13 3 5 2 15 25 33 34 38 41 42 40 39 38 40 43 36 33 34 33 32
18 10 11 12 13 15 19 22 24 24 22 20 27 32 21 6 8 16 24 28 34 40 40 40 43 43 43 43 40 37 34 31 32
5 3 7 12 15 16 18 21 25 28 29 25 22 22 25 26 13 12 13 23 33 35 36 33 33 41 44 42 41 39 35 33 31
Wind_Direction
179 178 184 177 177 166 165 166 153 140 135 125 149 136 122 91 103 123 113 63 95 95 91 91 90 89 88 86 82 80 78 75 72
184 210 192 183 184 191 197 195 186 180 169 165 207 160 146 118 137 162 181 4 115 103 96 97 101 99 96 93 88 84 81 78 76
205 205 195 192 201 205 205 206 205 206 198 187 206 188 175 152 150 184 187 248 150 134 123 116 112 105 100 101 99 93 87 79 67
216 216 211 207 211 209 212 205 213 214 206 198 211 209 197 192 174 186 234 255 183 170 162 154 154 151 138 126 122 120 101 77 59
220 222 223 221 215 215 220 227 225 216 214 211 213 219 221 206 183 207 225 225 210 204 194 188 185 194 198 201 220 219 234 342 358
226 225 226 226 224 225 225 244 228 222 222 219 222 232 231 207 202 221 235 239 229 222 216 210 209 211 215 219 228 240 251 269 296
231 229 229 226 226 226 231 242 234 231 228 230 236 242 239 223 223 235 230 234 243 227 228 229 229 229 229 231 235 242 247 256 267
227 228 224 221 223 225 229 237 234 234 234 236 238 243 246 239 234 252 226 247 252 241 236 239 239 241 244 244 244 247 251 257 262
227 228 223 226 224 229 233 237 242 245 243 242 242 246 246 248 234 259 238 246 250 254 236 238 243 246 248 250 252 253 255 258 263
228 221 220 229 230 232 237 240 240 245 252 248 242 244 248 241 234 244 247 246 247 250 249 234 237 242 244 248 249 254 255 256 258
221 221 225 229 229 232 238 241 240 245 251 254 247 243 245 248 238 245 243 246 244 252 255 246 237 238 242 245 249 254 258 256 256
226 233 231 237 239 236 237 236 236 243 250 251 251 247 243 250 249 247 244 246 250 248 245 250 247 244 241 244 251 257 257 256 258
231 226 232 239 242 240 241 242 245 250 248 250 245 243 252 253 252 253 250 248 248 243 248 251 251 247 246 244 246 253 255 254 258
230 237 234 237 241 238 239 241 243 250 257 256 256 252 252 256 256 251 248 252 250 246 248 250 247 249 246 246 247 250 256 254 257
223 228 233 229 232 240 239 244 245 254 262 262 260 262 261 258 254 255 254 253 249 250 249 247 242 245 247 248 252 256 257 257 257
217 224 230 232 241 250 247 242 247 256 263 264 267 267 264 260 254 256 249 253 254 252 250 247 248 244 246 244 249 252 253 254 256
219 218 224 227 235 246 251 238 246 254 264 256 271 280 276 256 254 250 256 247 250 245 243 244 245 240 245 251 252 252 253 254 256
225 215 233 248 248 251 256 253 250 260 261 253 239 267 235 260 246 251 252 247 245 248 243 245 241 244 250 261 257 254 254 254 257
230 224 226 245 256 258 263 266 267 267 258 260 257 248 257 265 279 243 247 251 246 246 247 245 246 248 252 253 256 258 256 257 258
203 197 258 267 279 277 273 274 272 268 258 251 248 244 247 248 248 270 255 251 252 251 248 246 240 241 244 252 252 256 254 262 258